Погода в Алексеевке

Россия / Саратовская область     51°50′09″N   43°55′58″E
темп.,
°C
ветер,
м/с
пор.,
м/с
влажн.,
%
обл.,
%
осадки,
мм/ч
давл.,
гПа
погр.,
м
28 февраля, вс
вс2801:00−12ссз4109295 0.0 1010332
04:00−14сз499666 0.0 1012247
07:00−16сз369743 0.0 101494
10:00−14сз489537 0.0 1015266
13:00−10сз469183 0.0 1015434
16:00−9сз369192 0.1 1015500
19:00−11сз339697 0.0 101645
22:00−11ссз239588 0.1 101930
1 марта, пн
пн101:00−14ссв229688 0.0 102020
04:00−15с229554 0.0 102220
07:00−17с23940 0.0 102420
10:00−15с23940 0.0 1026116
13:00−12ссз238917 0.0 1026246
16:00−10зсз359348 0.0 1026319
19:00−12зсз349681 0.0 102637
22:00−12зюз449760 0.0 102673
2 марта, вт
вт201:00−9зюз599793 0.0 1024206
04:00−7зюз6139596 0.1 1021411
07:00−4зюз81594100 0.2 1017555
10:00−2зюз81595100 1.1 1014689
13:000зюз91498100 1.1 1011879
16:00+1з81398100 2.1 1009735
19:000зсз61198100 0.6 1008574
22:00−1зсз41095100 0.8 1008335
3 марта, ср
ср301:00−4сз489797 0.0 1008189
04:00−6сз499690 0.0 1009173
07:00−6сз4109780 0.0 1010277
10:00−5сз6129486 0.1 1011572
13:00−3сз71090100 0.2 1013890
16:00−3сз71087100 0.3 1014907
19:00−4сз51193100 0.1 1015542
22:00−7зсз479386 0.1 1017111
4 марта, чт
чт401:00−9зсз449728 0.0 101876
04:00−10зсз469853 0.0 101990
07:00−11з479527 0.0 101991
10:00−7зюз6129114 0.0 1018319
13:00−2зюз8148533 0.0 1016690
16:00−1зюз8158257 0.0 1014762
19:00−2зюз8187987 0.0 1012597
22:00−2юз7177964 0.0 1012547